Location: Boss Branch
(32.3799°N, 97.2508°W)
Time: 00:33:51
(UTC+00:00)

JUGNU - Pass Details

Date: 10 December 2024
Orbit: 834 x 861 km, 20.0° (Epoch: 19 January)

Event Time Altitude Azimuth Distance (km) Brightness Sun altitude
Exits shadow 09:48:32 10° 129° (SE) 2,398 ? -43.8°
Drops below altitude 10° 09:48:35 10° 129° (SE) 2,412 ? -43.7°
Sets 09:52:03 0° 109° (ESE) 3,361 ? -43.0°
